Station Historical Data
Daily Summary for April 3, 2017 Units:  English    Metric   Both
« Previous Day
Next Day »
Daily Weekly Monthly Yearly Custom
  High: Low: Average:
Temperature: 69.9 °F 37.4 °F 54.3 °F
Dew Point: 50.9 °F 31.1 °F 38.5 °F
Humidity: 88% 31% 58%
Wind Speed: 16.0mph 0.0mph 3mph
Wind Gust: 19.0mph - -
Wind- - East
Pressure: 30.10 in 29.50 in -
Precipitation: 0.00 in    
Historical Graphs
 
 
Tabular Data for April 3, 2017
Time Temperature Dew Point Pressure Wind Wind Speed Wind Gust Humidity Rainfall Rate (Hourly)
00:04 39.0 °F 32.4 °F 30.10 in Calm   1.0 mph 77% 0.00 in
00:09 38.8 °F 32.2 °F 30.10 in Calm   1.0 mph 77% 0.00 in
00:19 38.7 °F 32.4 °F 30.10 in Calm   2.0 mph 78% 0.00 in
00:24 38.5 °F 32.2 °F 30.10 in Calm     78% 0.00 in
00:29 38.8 °F 32.5 °F 30.10 in Calm     78% 0.00 in
00:34 38.8 °F 32.2 °F 30.09 in Calm     77% 0.00 in
00:39 38.7 °F 32.1 °F 30.09 in Calm     77% 0.00 in
00:44 38.7 °F 32.1 °F 30.09 in Calm     77% 0.00 in
00:49 38.5 °F 31.9 °F 30.09 in Calm     77% 0.00 in
00:54 38.4 °F 32.1 °F 30.09 in Calm     78% 0.00 in
00:59 38.6 °F 32.0 °F 30.09 in Calm     77% 0.00 in
01:04 38.5 °F 31.9 °F 30.09 in Calm     77% 0.00 in
01:09 38.2 °F 31.9 °F 30.09 in Calm     78% 0.00 in
01:14 37.9 °F 31.7 °F 30.09 in Calm     78% 0.00 in
01:19 37.7 °F 31.8 °F 30.09 in Calm     79% 0.00 in
01:24 38.2 °F 31.9 °F 30.09 in Calm     78% 0.00 in
01:29 38.2 °F 31.6 °F 30.09 in Calm     77% 0.00 in
01:34 37.9 °F 31.3 °F 30.09 in Calm     77% 0.00 in
01:39 37.7 °F 31.5 °F 30.09 in Calm     78% 0.00 in
01:44 38.0 °F 31.7 °F 30.08 in Calm     78% 0.00 in
01:49 38.2 °F 31.9 °F 30.08 in Calm     78% 0.00 in
01:54 38.2 °F 31.9 °F 30.08 in Calm     78% 0.00 in
01:59 38.2 °F 31.9 °F 30.08 in Calm     78% 0.00 in
02:04 38.3 °F 32.4 °F 30.07 in Calm     79% 0.00 in
02:09 38.3 °F 32.4 °F 30.07 in Calm     79% 0.00 in
02:14 38.3 °F 32.4 °F 30.06 in Calm     79% 0.00 in
02:19 38.1 °F 31.8 °F 30.06 in Calm     78% 0.00 in
02:24 38.0 °F 32.1 °F 30.06 in Calm     79% 0.00 in
02:29 37.8 °F 31.9 °F 30.05 in Calm     79% 0.00 in
02:34 38.0 °F 32.1 °F 30.05 in Calm     79% 0.00 in
02:39 38.0 °F 31.7 °F 30.06 in Calm     78% 0.00 in
02:44 37.7 °F 31.1 °F 30.06 in Calm     77% 0.00 in
02:49 37.4 °F 31.2 °F 30.05 in Calm     78% 0.00 in
02:54 37.4 °F 31.5 °F 30.05 in Calm   2.0 mph 79% 0.00 in
02:59 37.9 °F 31.3 °F 30.04 in SSW 1.0 mph 1.0 mph 77% 0.00 in
03:04 38.1 °F 31.5 °F 30.04 in Calm   2.0 mph 77% 0.00 in
03:09 38.3 °F 31.4 °F 30.04 in Calm     76% 0.00 in
03:14 38.3 °F 31.1 °F 30.04 in Calm     75% 0.00 in
03:19 38.5 °F 31.6 °F 30.03 in Calm     76% 0.00 in
03:24 38.9 °F 31.6 °F 30.03 in Calm     75% 0.00 in
03:29 39.1 °F 31.5 °F 30.03 in Calm     74% 0.00 in
03:34 39.3 °F 31.7 °F 30.03 in Calm     74% 0.00 in
03:39 39.4 °F 31.5 °F 30.03 in Calm     73% 0.00 in
03:44 39.6 °F 31.7 °F 30.03 in Calm     73% 0.00 in
03:49 39.9 °F 31.9 °F 30.03 in Calm     73% 0.00 in
03:54 40.1 °F 31.8 °F 30.02 in Calm   2.0 mph 72% 0.00 in
03:59 40.3 °F 32.3 °F 30.03 in Calm     73% 0.00 in
04:04 40.4 °F 32.4 °F 30.03 in Calm     73% 0.00 in
04:09 40.3 °F 32.0 °F 30.03 in Calm     72% 0.00 in
04:14 40.4 °F 32.4 °F 30.02 in Calm     73% 0.00 in
04:19 40.6 °F 32.6 °F 30.03 in Calm   2.0 mph 73% 0.00 in
04:24 40.8 °F 32.5 °F 30.03 in Calm   2.0 mph 72% 0.00 in
04:29 40.8 °F 32.5 °F 30.03 in Calm     72% 0.00 in
04:34 40.7 °F 32.4 °F 30.03 in Calm     72% 0.00 in
04:39 40.8 °F 32.5 °F 30.03 in Calm     72% 0.00 in
04:44 41.0 °F 32.7 °F 30.03 in Calm     72% 0.00 in
04:49 41.2 °F 32.9 °F 30.02 in Calm     72% 0.00 in
04:54 41.3 °F 33.0 °F 30.03 in Calm     72% 0.00 in
04:59 41.3 °F 32.6 °F 30.03 in Calm     71% 0.00 in
05:04 41.4 °F 32.7 °F 30.03 in Calm     71% 0.00 in
05:09 41.4 °F 32.7 °F 30.03 in Calm     71% 0.00 in
05:14 41.4 °F 33.0 °F 30.03 in Calm     72% 0.00 in
05:19 41.4 °F 33.0 °F 30.03 in Calm     72% 0.00 in
05:24 41.6 °F 33.2 °F 30.03 in Calm     72% 0.00 in
05:29 41.8 °F 33.4 °F 30.03 in Calm   2.0 mph 72% 0.00 in
05:34 42.1 °F 33.4 °F 30.03 in Calm   2.0 mph 71% 0.00 in
05:39 42.1 °F 33.4 °F 30.03 in Calm   2.0 mph 71% 0.00 in
05:44 42.2 °F 33.5 °F 30.03 in Calm   1.0 mph 71% 0.00 in
05:49 42.5 °F 33.8 °F 30.04 in Calm   1.0 mph 71% 0.00 in
05:54 42.5 °F 33.4 °F 30.03 in Calm     70% 0.00 in
05:59 42.8 °F 34.0 °F 30.03 in Calm   2.0 mph 71% 0.00 in
06:04 42.8 °F 34.0 °F 30.03 in Calm   1.0 mph 71% 0.00 in
06:09 42.9 °F 33.8 °F 30.03 in Calm     70% 0.00 in
06:14 43.0 °F 33.9 °F 30.03 in East 2.0 mph 2.0 mph 70% 0.00 in
06:19 43.3 °F 34.2 °F 30.03 in East 3.0 mph 3.0 mph 70% 0.00 in
06:24 43.4 °F 33.9 °F 30.02 in Calm   3.0 mph 69% 0.00 in
06:29 43.5 °F 34.0 °F 30.02 in East 2.0 mph 3.0 mph 69% 0.00 in
06:34 43.7 °F 34.2 °F 30.02 in East 1.0 mph 5.0 mph 69% 0.00 in
06:39 43.8 °F 33.9 °F 30.02 in East 2.0 mph 5.0 mph 68% 0.00 in
06:44 44.0 °F 34.1 °F 30.02 in ESE 1.0 mph 4.0 mph 68% 0.00 in
06:49 44.2 °F 34.3 °F 30.03 in ESE 2.0 mph 4.0 mph 68% 0.00 in
06:54 44.3 °F 34.0 °F 30.03 in ESE 1.0 mph 3.0 mph 67% 0.00 in
06:59 44.5 °F 34.2 °F 30.04 in Calm     67% 0.00 in
07:04 44.7 °F 34.4 °F 30.05 in Calm     67% 0.00 in
07:09 44.8 °F 34.5 °F 30.05 in Calm     67% 0.00 in
07:14 44.8 °F 34.1 °F 30.06 in Calm     66% 0.00 in
07:19 44.9 °F 34.2 °F 30.06 in Calm     66% 0.00 in
07:24 45.2 °F 34.9 °F 30.06 in ESE 1.0 mph 2.0 mph 67% 0.00 in
07:29 45.4 °F 35.1 °F 30.06 in SSW 3.0 mph 5.0 mph 67% 0.00 in
07:34 45.4 °F 35.5 °F 30.05 in Calm   4.0 mph 68% 0.00 in
07:39 45.4 °F 35.5 °F 30.05 in South 1.0 mph 4.0 mph 68% 0.00 in
07:44 45.6 °F 36.0 °F 30.06 in Calm   2.0 mph 69% 0.00 in
07:49 45.6 °F 36.0 °F 30.06 in Calm   2.0 mph 69% 0.00 in
07:54 45.5 °F 36.3 °F 30.06 in Calm   2.0 mph 70% 0.00 in
07:59 45.6 °F 36.0 °F 30.05 in East 1.0 mph 3.0 mph 69% 0.00 in
08:04 45.6 °F 36.4 °F 30.05 in NE 1.0 mph 4.0 mph 70% 0.00 in
08:09 45.6 °F 36.0 °F 30.05 in NE 2.0 mph 3.0 mph 69% 0.00 in
08:14 45.8 °F 36.2 °F 30.04 in NE 2.0 mph 3.0 mph 69% 0.00 in
08:19 46.1 °F 36.1 °F 30.04 in ENE 2.0 mph 4.0 mph 68% 0.00 in
08:24 46.3 °F 35.9 °F 30.04 in ENE 2.0 mph 5.0 mph 67% 0.00 in
08:29 46.5 °F 36.1 °F 30.04 in ENE 1.0 mph 4.0 mph 67% 0.00 in
08:34 46.9 °F 36.5 °F 30.04 in ENE 3.0 mph 4.0 mph 67% 0.00 in
08:39 47.2 °F 36.8 °F 30.04 in ENE 1.0 mph 3.0 mph 67% 0.00 in
08:44 47.6 °F 36.8 °F 30.03 in ENE 2.0 mph 6.0 mph 66% 0.00 in
08:49 47.8 °F 36.6 °F 30.02 in ENE 3.0 mph 6.0 mph 65% 0.00 in
08:54 48.0 °F 36.8 °F 30.01 in ENE 3.0 mph 8.0 mph 65% 0.00 in
08:59 48.2 °F 37.0 °F 30.01 in ENE 3.0 mph 8.0 mph 65% 0.00 in
09:04 48.5 °F 37.3 °F 30.00 in ENE 3.0 mph 7.0 mph 65% 0.00 in
09:09 49.1 °F 37.4 °F 30.01 in East 5.0 mph 7.0 mph 64% 0.00 in
09:14 49.8 °F 38.1 °F 30.00 in ENE 2.0 mph 5.0 mph 64% 0.00 in
09:19 50.3 °F 37.8 °F 30.00 in ENE 2.0 mph 7.0 mph 62% 0.00 in
09:24 50.8 °F 37.8 °F 30.00 in ENE 2.0 mph 8.0 mph 61% 0.00 in
09:29 51.5 °F 38.1 °F 30.00 in ENE 4.0 mph 8.0 mph 60% 0.00 in
09:34 52.7 °F 38.8 °F 29.99 in ENE 4.0 mph 7.0 mph 59% 0.00 in
09:39 53.5 °F 39.5 °F 29.99 in ESE 3.0 mph 10.0 mph 59% 0.00 in
09:44 54.6 °F 39.7 °F 29.99 in SE 2.0 mph 6.0 mph 57% 0.00 in
09:49 55.1 °F 39.2 °F 29.99 in East 3.0 mph 8.0 mph 55% 0.00 in
09:54 55.5 °F 39.1 °F 29.99 in East 4.0 mph 8.0 mph 54% 0.00 in
09:59 56.6 °F 40.1 °F 29.99 in NE 2.0 mph 6.0 mph 54% 0.00 in
10:04 56.8 °F 39.8 °F 29.98 in East 3.0 mph 9.0 mph 53% 0.00 in
10:09 56.8 °F 39.4 °F 29.98 in ENE 2.0 mph 9.0 mph 52% 0.00 in
10:14 56.9 °F 38.9 °F 29.98 in NE 2.0 mph 11.0 mph 51% 0.00 in
10:19 57.9 °F 39.9 °F 29.98 in ENE 4.0 mph 10.0 mph 51% 0.00 in
10:24 58.8 °F 40.2 °F 29.98 in East 4.0 mph 10.0 mph 50% 0.00 in
10:29 59.6 °F 39.9 °F 29.98 in East 3.0 mph 8.0 mph 48% 0.00 in
10:34 60.0 °F 39.1 °F 29.97 in East 4.0 mph 10.0 mph 46% 0.00 in
10:39 60.2 °F 38.8 °F 29.97 in East 5.0 mph 11.0 mph 45% 0.00 in
10:44 60.4 °F 37.8 °F 29.96 in East 6.0 mph 14.0 mph 43% 0.00 in
10:49 59.8 °F 38.4 °F 29.96 in SSE 8.0 mph 11.0 mph 45% 0.00 in
10:59 59.8 °F 37.8 °F 29.96 in ENE 6.0 mph 14.0 mph 44% 0.00 in
11:04 60.0 °F 38.6 °F 29.95 in ENE 3.0 mph 12.0 mph 45% 0.00 in
11:09 60.7 °F 38.1 °F 29.95 in ESE 9.0 mph 11.0 mph 43% 0.00 in
11:14 61.9 °F 39.1 °F 29.94 in ESE 11.0 mph 17.0 mph 43% 0.00 in
11:19 62.0 °F 39.2 °F 29.94 in ESE 16.0 mph 16.0 mph 43% 0.00 in
11:24 61.8 °F 38.4 °F 29.94 in SE 3.0 mph 16.0 mph 42% 0.00 in
11:29 62.0 °F 38.0 °F 29.93 in East 6.0 mph 16.0 mph 41% 0.00 in
11:34 61.7 °F 37.7 °F 29.93 in East 7.0 mph 15.0 mph 41% 0.00 in
11:39 61.3 °F 37.4 °F 29.92 in East 8.0 mph 16.0 mph 41% 0.00 in
11:44 61.0 °F 37.1 °F 29.92 in East 8.0 mph 16.0 mph 41% 0.00 in
11:49 61.4 °F 36.8 °F 29.92 in SSE 3.0 mph 10.0 mph 40% 0.00 in
11:54 61.6 °F 37.7 °F 29.92 in East 7.0 mph 11.0 mph 41% 0.00 in
11:59 61.6 °F 37.7 °F 29.92 in ESE 5.0 mph 12.0 mph 41% 0.00 in
12:04 61.4 °F 36.8 °F 29.91 in East 6.0 mph 17.0 mph 40% 0.00 in
12:09 61.3 °F 37.4 °F 29.91 in East 7.0 mph 17.0 mph 41% 0.00 in
12:14 61.4 °F 36.2 °F 29.91 in SE 3.0 mph 13.0 mph 39% 0.00 in
12:19 61.6 °F 37.0 °F 29.90 in SSE 4.0 mph 18.0 mph 40% 0.00 in
12:24 62.0 °F 37.4 °F 29.89 in NE 8.0 mph 9.0 mph 40% 0.00 in
12:29 61.9 °F 36.0 °F 29.89 in East 5.0 mph 18.0 mph 38% 0.00 in
12:34 62.1 °F 36.8 °F 29.88 in East 7.0 mph 18.0 mph 39% 0.00 in
12:39 62.4 °F 36.4 °F 29.88 in NE 3.0 mph 18.0 mph 38% 0.00 in
12:44 62.5 °F 36.5 °F 29.87 in ESE 4.0 mph 17.0 mph 38% 0.00 in
12:54 63.2 °F 37.2 °F 29.86 in SE 7.0 mph 14.0 mph 38% 0.00 in
12:59 63.5 °F 38.1 °F 29.86 in ESE 9.0 mph 14.0 mph 39% 0.00 in
13:04 63.4 °F 36.7 °F 29.86 in ESE 6.0 mph 14.0 mph 37% 0.00 in
13:09 64.1 °F 38.0 °F 29.86 in ESE 6.0 mph 14.0 mph 38% 0.00 in
13:14 64.7 °F 37.1 °F 29.85 in ESE 5.0 mph 14.0 mph 36% 0.00 in
13:19 64.2 °F 37.4 °F 29.85 in East 6.0 mph 15.0 mph 37% 0.00 in
13:24 64.2 °F 38.0 °F 29.85 in East 7.0 mph 16.0 mph 38% 0.00 in
13:29 64.5 °F 37.6 °F 29.85 in ESE 7.0 mph 16.0 mph 37% 0.00 in
13:34 64.4 °F 38.2 °F 29.84 in ESE 7.0 mph 16.0 mph 38% 0.00 in
13:39 64.4 °F 38.2 °F 29.83 in ESE 5.0 mph 15.0 mph 38% 0.00 in
13:44 65.2 °F 39.6 °F 29.83 in South 5.0 mph 17.0 mph 39% 0.00 in
13:49 65.5 °F 37.8 °F 29.83 in East 9.0 mph 17.0 mph 36% 0.00 in
13:54 66.9 °F 41.1 °F 29.82 in ENE 4.0 mph 13.0 mph 39% 0.00 in
13:59 68.1 °F 39.4 °F 29.82 in ESE 2.0 mph 10.0 mph 35% 0.00 in
14:04 68.3 °F 38.8 °F 29.81 in SSE 3.0 mph 15.0 mph 34% 0.00 in
14:09 68.0 °F 42.1 °F 29.81 in East 6.0 mph 16.0 mph 39% 0.00 in
14:14 68.4 °F 38.9 °F 29.81 in ENE 6.0 mph 16.0 mph 34% 0.00 in
14:19 68.7 °F 39.9 °F 29.80 in East 6.0 mph 13.0 mph 35% 0.00 in
14:24 68.3 °F 37.3 °F 29.80 in East 7.0 mph 18.0 mph 32% 0.00 in
14:29 68.3 °F 38.1 °F 29.80 in SSE 7.0 mph 14.0 mph 33% 0.00 in
14:34 68.5 °F 37.5 °F 29.79 in ENE 7.0 mph 16.0 mph 32% 0.00 in
14:39 68.3 °F 38.8 °F 29.79 in East 7.0 mph 16.0 mph 34% 0.00 in
14:44 68.8 °F 40.0 °F 29.79 in ESE 2.0 mph 12.0 mph 35% 0.00 in
14:49 69.1 °F 37.2 °F 29.78 in ESE 3.0 mph 18.0 mph 31% 0.00 in
14:54 68.4 °F 39.7 °F 29.77 in ENE 10.0 mph 15.0 mph 35% 0.00 in
14:59 68.9 °F 38.6 °F 29.77 in ENE 7.0 mph 15.0 mph 33% 0.00 in
15:04 68.8 °F 38.5 °F 29.76 in East 2.0 mph 14.0 mph 33% 0.00 in
15:09 69.1 °F 39.5 °F 29.76 in NE 4.0 mph 14.0 mph 34% 0.00 in
15:14 69.1 °F 38.8 °F 29.76 in East 7.0 mph 19.0 mph 33% 0.00 in
15:19 69.7 °F 39.3 °F 29.75 in East 7.0 mph 19.0 mph 33% 0.00 in
15:24 69.9 °F 37.9 °F 29.75 in East 7.0 mph 16.0 mph 31% 0.00 in
15:29 69.5 °F 38.3 °F 29.74 in ESE 7.0 mph 16.0 mph 32% 0.00 in
15:34 69.3 °F 38.9 °F 29.74 in ESE 6.0 mph 14.0 mph 33% 0.00 in
15:39 69.0 °F 39.4 °F 29.74 in SE 3.0 mph 13.0 mph 34% 0.00 in
15:44 68.8 °F 39.3 °F 29.74 in ESE 6.0 mph 13.0 mph 34% 0.00 in
15:49 68.0 °F 38.6 °F 29.73 in NE 3.0 mph 16.0 mph 34% 0.00 in
15:54 67.9 °F 38.5 °F 29.73 in East 8.0 mph 17.0 mph 34% 0.00 in
15:59 67.5 °F 38.9 °F 29.72 in SE 7.0 mph 13.0 mph 35% 0.00 in
16:04 67.6 °F 39.7 °F 29.72 in NE 7.0 mph 14.0 mph 36% 0.00 in
16:09 67.6 °F 39.0 °F 29.71 in ENE 4.0 mph 13.0 mph 35% 0.00 in
16:14 67.6 °F 39.7 °F 29.71 in SE 3.0 mph 10.0 mph 36% 0.00 in
16:19 67.5 °F 38.9 °F 29.71 in East 5.0 mph 13.0 mph 35% 0.00 in
16:24 67.2 °F 39.3 °F 29.70 in East 5.0 mph 13.0 mph 36% 0.00 in
16:29 67.1 °F 39.2 °F 29.70 in East 5.0 mph 11.0 mph 36% 0.00 in
16:34 67.0 °F 39.9 °F 29.70 in East 6.0 mph 14.0 mph 37% 0.00 in
16:39 67.0 °F 39.9 °F 29.70 in East 6.0 mph 14.0 mph 37% 0.00 in
16:44 67.0 °F 39.9 °F 29.70 in East 6.0 mph 11.0 mph 37% 0.00 in
16:49 67.1 °F 39.9 °F 29.69 in East 5.0 mph 14.0 mph 37% 0.00 in
16:54 67.0 °F 39.9 °F 29.69 in ENE 4.0 mph 10.0 mph 37% 0.00 in
16:59 67.1 °F 40.6 °F 29.69 in ENE 10.0 mph 10.0 mph 38% 0.00 in
17:04 67.1 °F 40.6 °F 29.69 in East 6.0 mph 13.0 mph 38% 0.00 in
17:09 67.3 °F 40.8 °F 29.69 in East 8.0 mph 14.0 mph 38% 0.00 in
17:14 67.2 °F 40.7 °F 29.69 in East 6.0 mph 11.0 mph 38% 0.00 in
17:19 67.2 °F 40.7 °F 29.68 in North 2.0 mph 14.0 mph 38% 0.00 in
17:24 67.1 °F 41.3 °F 29.68 in ENE 5.0 mph 14.0 mph 39% 0.00 in
17:29 67.0 °F 41.2 °F 29.67 in ENE 5.0 mph 11.0 mph 39% 0.00 in
17:34 67.0 °F 40.5 °F 29.67 in ENE 5.0 mph 11.0 mph 38% 0.00 in
17:39 66.9 °F 41.1 °F 29.67 in ENE 5.0 mph 11.0 mph 39% 0.00 in
17:44 67.0 °F 41.2 °F 29.67 in ENE 4.0 mph 9.0 mph 39% 0.00 in
17:49 67.0 °F 41.2 °F 29.66 in ENE 5.0 mph 14.0 mph 39% 0.00 in
17:54 67.0 °F 41.2 °F 29.66 in East 6.0 mph 9.0 mph 39% 0.00 in
17:59 66.9 °F 41.8 °F 29.66 in East 7.0 mph 13.0 mph 40% 0.00 in
18:04 66.8 °F 41.7 °F 29.66 in NE 4.0 mph 10.0 mph 40% 0.00 in
18:09 66.4 °F 42.6 °F 29.66 in NE 4.0 mph 13.0 mph 42% 0.00 in
18:14 65.8 °F 42.1 °F 29.65 in NE 9.0 mph 12.0 mph 42% 0.00 in
18:19 65.6 °F 42.5 °F 29.65 in ENE 8.0 mph 11.0 mph 43% 0.00 in
18:24 65.4 °F 42.9 °F 29.66 in NE 5.0 mph 11.0 mph 44% 0.00 in
18:29 65.0 °F 42.5 °F 29.66 in NE 7.0 mph 15.0 mph 44% 0.00 in
18:34 64.6 °F 42.2 °F 29.65 in NE 8.0 mph 15.0 mph 44% 0.00 in
18:39 64.3 °F 42.5 °F 29.65 in ENE 7.0 mph 12.0 mph 45% 0.00 in
18:44 64.0 °F 42.2 °F 29.66 in ESE 4.0 mph 7.0 mph 45% 0.00 in
18:49 63.8 °F 42.0 °F 29.65 in NE 4.0 mph 9.0 mph 45% 0.00 in
18:54 63.6 °F 41.9 °F 29.65 in East 7.0 mph 9.0 mph 45% 0.00 in
18:59 63.5 °F 42.3 °F 29.65 in East 4.0 mph 9.0 mph 46% 0.00 in
19:04 63.3 °F 42.2 °F 29.65 in ENE 3.0 mph 8.0 mph 46% 0.00 in
19:09 63.1 °F 42.0 °F 29.64 in NE 4.0 mph 10.0 mph 46% 0.00 in
19:14 62.9 °F 42.4 °F 29.63 in ESE 7.0 mph 9.0 mph 47% 0.00 in
19:19 62.6 °F 42.1 °F 29.63 in NNE 3.0 mph 9.0 mph 47% 0.00 in
19:24 62.4 °F 41.9 °F 29.62 in NE 4.0 mph 11.0 mph 47% 0.00 in
19:29 62.3 °F 42.3 °F 29.62 in ENE 7.0 mph 13.0 mph 48% 0.00 in
19:34 62.2 °F 42.3 °F 29.62 in ENE 5.0 mph 13.0 mph 48% 0.00 in
19:39 62.0 °F 42.1 °F 29.62 in ENE 4.0 mph 9.0 mph 48% 0.00 in
19:44 61.9 °F 42.5 °F 29.61 in ENE 4.0 mph 9.0 mph 49% 0.00 in
19:49 61.8 °F 42.4 °F 29.61 in ENE 4.0 mph 7.0 mph 49% 0.00 in
19:54 61.7 °F 42.3 °F 29.61 in ENE 2.0 mph 6.0 mph 49% 0.00 in
19:59 61.6 °F 42.8 °F 29.61 in ENE 1.0 mph 8.0 mph 50% 0.00 in
20:04 61.5 °F 42.7 °F 29.61 in East 2.0 mph 8.0 mph 50% 0.00 in
20:09 61.5 °F 42.7 °F 29.61 in East 4.0 mph 10.0 mph 50% 0.00 in
20:14 61.6 °F 42.8 °F 29.61 in East 4.0 mph 10.0 mph 50% 0.00 in
20:19 61.6 °F 42.2 °F 29.61 in East 4.0 mph 9.0 mph 49% 0.00 in
20:24 61.6 °F 42.8 °F 29.60 in ESE 3.0 mph 7.0 mph 50% 0.00 in
20:29 61.8 °F 43.0 °F 29.60 in SE 3.0 mph 14.0 mph 50% 0.00 in
20:34 61.8 °F 43.0 °F 29.61 in ESE 4.0 mph 14.0 mph 50% 0.00 in
20:39 61.7 °F 43.4 °F 29.61 in SE 3.0 mph 8.0 mph 51% 0.00 in
20:44 61.8 °F 43.5 °F 29.61 in SE 4.0 mph 8.0 mph 51% 0.00 in
20:49 61.8 °F 44.5 °F 29.61 in SSE 4.0 mph 11.0 mph 53% 0.00 in
20:54 62.1 °F 45.2 °F 29.61 in South 4.0 mph 18.0 mph 54% 0.00 in
20:59 62.1 °F 45.7 °F 29.61 in SE 4.0 mph 13.0 mph 55% 0.00 in
21:04 61.9 °F 47.0 °F 29.61 in SSE 6.0 mph 16.0 mph 58% 0.00 in
21:09 61.5 °F 47.5 °F 29.61 in SSE 3.0 mph 13.0 mph 60% 0.00 in
21:14 61.0 °F 48.3 °F 29.60 in SSE 6.0 mph 13.0 mph 63% 0.00 in
21:19 60.6 °F 48.4 °F 29.60 in SSE 5.0 mph 12.0 mph 64% 0.00 in
21:24 60.1 °F 48.7 °F 29.60 in SSE 4.0 mph 9.0 mph 66% 0.01 in
21:29 59.7 °F 49.1 °F 29.59 in SE 4.0 mph 8.0 mph 68% 0.01 in
21:34 59.2 °F 49.0 °F 29.59 in SE 4.0 mph 8.0 mph 69% 0.01 in
21:39 59.0 °F 49.2 °F 29.59 in SE 3.0 mph 8.0 mph 70% 0.01 in
21:49 58.5 °F 49.5 °F 29.58 in SE 2.0 mph 5.0 mph 72% 0.02 in
21:54 58.2 °F 49.2 °F 29.58 in SE 5.0 mph 6.0 mph 72% 0.02 in
21:59 57.9 °F 49.3 °F 29.58 in SSE 1.0 mph 5.0 mph 73% 0.02 in
22:04 57.8 °F 49.6 °F 29.58 in SSE 1.0 mph 5.0 mph 74% 0.02 in
22:09 57.6 °F 49.4 °F 29.57 in SE 2.0 mph 3.0 mph 74% 0.02 in
22:14 57.5 °F 49.6 °F 29.57 in East 1.0 mph 5.0 mph 75% 0.02 in
22:19 57.3 °F 49.4 °F 29.57 in ESE 1.0 mph 5.0 mph 75% 0.02 in
22:24 57.2 °F 49.7 °F 29.57 in East 1.0 mph 3.0 mph 76% 0.02 in
22:29 57.1 °F 50.0 °F 29.56 in East 1.0 mph 3.0 mph 77% 0.02 in
22:34 56.9 °F 49.8 °F 29.56 in East 1.0 mph 3.0 mph 77% 0.02 in
22:39 56.8 °F 50.0 °F 29.56 in ENE 1.0 mph 3.0 mph 78% 0.03 in
22:44 56.7 °F 50.3 °F 29.55 in ENE 1.0 mph 2.0 mph 79% 0.02 in
22:49 56.4 °F 50.0 °F 29.55 in NE 2.0 mph 4.0 mph 79% 0.03 in
22:54 56.3 °F 50.2 °F 29.55 in NE 1.0 mph 4.0 mph 80% 0.03 in
22:59 56.1 °F 50.3 °F 29.54 in Calm   3.0 mph 81% 0.04 in
23:04 56.0 °F 50.6 °F 29.54 in Calm     82% 0.05 in
23:09 55.8 °F 50.4 °F 29.54 in Calm     82% 0.06 in
23:14 55.7 °F 50.6 °F 29.53 in Calm     83% 0.07 in
23:19 55.5 °F 50.7 °F 29.53 in NE 2.0 mph 3.0 mph 84% 0.09 in
23:29 54.8 °F 50.4 °F 29.53 in NE 2.0 mph 4.0 mph 85% 0.13 in
23:34 54.6 °F 50.8 °F 29.52 in NE 2.0 mph 5.0 mph 87% 0.16 in
23:39 54.5 °F 50.7 °F 29.52 in NE 2.0 mph 5.0 mph 87% 0.18 in
23:44 54.4 °F 50.6 °F 29.51 in NE 2.0 mph 5.0 mph 87% 0.21 in
23:49 54.4 °F 50.6 °F 29.51 in NE 3.0 mph 5.0 mph 87% 0.23 in
23:54 54.4 °F 50.9 °F 29.51 in NE 4.0 mph 5.0 mph 88% 0.25 in
23:59 54.4 °F 50.9 °F 29.50 in ENE 3.0 mph 6.0 mph 88% 0.25 in
Buffalo, New York, USA
Compliments of Weather Underground - 2.5 mb